Location: Saint Peter Port
(49.4500°N, 2.5330°W)
Time: 21:20:09
(UTC+01:00)

Cosmos 2242 Rocket - Visible Passes

Search period start: 29 May 2015 00:00
Search period end: 08 June 2015 00:00
Orbit: 620 x 651 km, 82.5° (Epoch: 29 May)

Date Brightness Start Highest point End Pass type
(mag) Time Alt. Az. Time Alt. Az. Time Alt. Az.
29 May 5.1 00:17:24 10° N 00:21:22 28° ENE 00:23:34 20° ESE visible
29 May 4.6 01:55:30 10° NNW 01:59:42 35° W 02:01:04 29° SW visible
30 May 4.1 00:39:44 10° N 00:44:13 53° ENE 00:46:01 32° SE visible
30 May 5.4 02:18:49 10° NW 02:22:07 19° W 02:23:31 17° WSW visible
30 May 6.0 23:25:34 10° NNE 23:27:57 14° ENE 23:30:29 10° E visible
31 May 3.6 01:02:19 10° NNW 01:06:56 81° W 01:08:29 41° S visible
31 May 5.3 23:47:17 10° NNE 23:51:02 25° ENE 23:53:27 17° ESE visible
01 Jun 4.4 01:25:10 10° NNW 01:29:29 41° W 01:30:57 31° SW visible
02 Jun 4.3 00:09:32 10° N 00:13:56 45° ENE 00:15:56 27° SE visible
02 Jun 5.3 01:48:21 10° NW 01:51:55 22° W 01:53:26 19° WSW visible
02 Jun 6.0 22:55:47 10° NE 22:57:34 12° ENE 22:59:32 10° E visible
03 Jun 3.6 00:32:04 10° N 00:36:40 86° E 00:38:26 37° SSE visible
03 Jun 5.9 02:12:29 10° WNW 02:14:15 12° W 02:15:46 10° WSW visible
03 Jun 5.4 23:17:12 10° NNE 23:20:41 21° ENE 23:23:26 13° ESE visible
04 Jun 4.2 00:54:51 10° NNW 00:59:15 48° W 01:00:56 32° SSW visible
04 Jun 4.5 23:39:22 10° N 23:43:38 38° ENE 23:45:57 23° SE visible
05 Jun 5.1 01:17:56 10° NNW 01:21:43 26° W 01:23:27 20° WSW visible
05 Jun 6.1 22:26:22 10° NE 22:27:10 10° ENE 22:28:10 10° ENE visible
06 Jun 3.7 00:01:49 10° N 00:06:24 74° E 00:08:28 32° SSE visible
06 Jun 5.9 01:41:41 10° NW 01:44:04 14° W 01:45:59 11° WSW visible
06 Jun 5.5 22:47:09 10° NNE 22:50:19 19° ENE 22:53:31 10° ESE visible
07 Jun 4.0 00:24:32 10° NNW 00:29:01 57° W 00:31:01 30° SSW visible
07 Jun 4.7 23:09:12 10° N 23:13:18 33° ENE 23:16:03 18° SE visible
